Change the Weather History Date:

Saturday, January 4, 2014

  Actual Average Record
Temperature  
Mean Temperature 18 °F 22 °F  
Max Temperature 28 °F 29 °F 50 °F (2012)
Min Temperature 8 °F 15 °F -24 °F (1979)
Degree Days  
Heating Degree Days 47 43  
Month to date heating degree days 158 172  
Since 1 July heating degree days 3597 3686  
Cooling Degree Days 0 0  
Month to date cooling degree days 0 0  
Year to date cooling degree days 0 0  
Moisture  
Dew Point 18 °F    
Average Humidity 84    
Maximum Humidity 100    
Minimum Humidity 68    
Precipitation  
Precipitation T in 0.05 in 0.81 in (1937)
Month to date precipitation 0.30 0.20  
Year to date precipitation 0.30 0.20  
Snow  
Snow 1.00 in - - ()
Month to date snowfall 6.0  
Year to date snowfall 6.0  
Since 1 July snowfall 39.5  
Snow Depth 5.00 in    
Sea Level Pressure  
Sea Level Pressure 30.19 in    
Wind  
Wind Speed 6 mph (NNE)    
Max Wind Speed 23 mph    
Max Gust Speed 28 mph    
Visibility 9 miles    
Events Snow    
T = Trace of Precipitation, MM = Missing Value Source: NWS Daily Summary

Daily Weather History Graph

Daily Weather History Graph

Search for Another Location

Airport or City:

Trip Planner

Search our weather history database for the weather conditions in past years. The results will help you decide how hot, cold, wet, or windy it might be!

Date:

Astronomy

Jan. 04, 2014 Rise Set
Actual Time 8:27 AM MST 4:56 PM MST
Civil Twilight 7:51 AM MST 5:32 PM MST
Nautical Twilight 7:12 AM MST 6:12 PM MST
Astronomical Twilight 6:34 AM MST 6:50 PM MST
Moon 10:15 AM MST (1/4) 9:43 PM MST (1/4)
Length of Visible Light 9h 41m
Length of Day
8h 28m
Waxing Crescent, 16% of the Moon is Illuminated
Jan 4
Waxing Crescent
Jan 7
First Quarter
Jan 15
Full
Jan 23
Last Quarter
Jan 30
New

Hourly Weather History & Observations

Time (MST) Temp. Windchill Dew Point Humidity Pressure Visibility Wind Dir Wind Speed Gust Speed Precip Events Conditions
12:04 AM 28.4 °F - 26.6 °F 93% 29.98 in 10.0 mi Calm Calm - N/A   Overcast
12:20 AM 28.4 °F - 26.6 °F 93% 29.99 in 10.0 mi Calm Calm - N/A   Overcast
12:34 AM 26.6 °F - 24.8 °F 93% 29.99 in 10.0 mi Calm Calm - N/A   Overcast
12:55 AM 26.1 °F - 25.0 °F 96% 30.06 in 10.0 mi Calm Calm - N/A   Overcast
1:55 AM 25.0 °F - 24.1 °F 96% 30.06 in 10.0 mi Calm Calm - N/A   Overcast
2:55 AM 27.0 °F - 26.1 °F 96% 30.08 in 8.0 mi Calm Calm - N/A   Overcast
3:55 AM 27.0 °F 23.0 °F 25.0 °F 92% 30.09 in 10.0 mi South 3.5 mph - N/A   Overcast
4:55 AM 27.0 °F - 25.0 °F 92% 30.09 in 10.0 mi Calm Calm - N/A   Overcast
5:55 AM 25.0 °F - 24.1 °F 96% 30.10 in 10.0 mi Calm Calm - N/A   Overcast
6:55 AM 25.0 °F - 23.0 °F 92% 30.12 in 10.0 mi Calm Calm - N/A   Overcast
7:55 AM 24.1 °F 13.1 °F 19.0 °F 81% 30.14 in 10.0 mi NNE 11.5 mph - N/A   Overcast
8:55 AM 23.0 °F 9.6 °F 16.0 °F 74% 30.18 in 6.0 mi NNE 16.1 mph - 0.00 in Snow Light Snow
9:55 AM 23.0 °F 9.6 °F 15.1 °F 72% 30.23 in 6.0 mi NNE 16.1 mph - 0.00 in Snow Light Snow
10:14 AM 21.2 °F 7.8 °F 15.8 °F 80% 30.13 in 2.0 mi NNE 15.0 mph - 0.00 in Snow Light Snow
10:35 AM 21.2 °F 8.9 °F 15.8 °F 80% 30.13 in 6.0 mi NNE 12.7 mph - 0.00 in Snow Light Snow
10:55 AM 23.0 °F 11.1 °F 15.1 °F 72% 30.25 in 6.0 mi NNE 12.7 mph - 0.00 in Snow Blowing Snow
11:02 AM 21.2 °F 8.3 °F 15.8 °F 80% 30.14 in 6.0 mi North 13.8 mph - 0.00 in Snow Light Snow
11:15 AM 21.2 °F 9.5 °F 15.8 °F 80% 30.14 in 5.0 mi NNE 11.5 mph - 0.00 in Snow Blowing Snow
11:55 AM 23.0 °F 11.7 °F 14.0 °F 68% 30.25 in 10.0 mi NNE 11.5 mph - 0.00 in   Overcast
12:55 PM 24.1 °F 16.0 °F 16.0 °F 71% 30.26 in 10.0 mi North 6.9 mph - N/A   Overcast
1:55 PM 24.1 °F 16.0 °F 16.0 °F 71% 30.26 in 10.0 mi NNE 6.9 mph - N/A   Overcast
2:55 PM 24.1 °F 14.4 °F 17.1 °F 75% 30.27 in 10.0 mi NE 9.2 mph - N/A   Overcast
3:55 PM 23.0 °F 14.7 °F 17.1 °F 78% 30.28 in 10.0 mi NE 6.9 mph - N/A   Overcast
4:55 PM 21.9 °F 15.7 °F 17.1 °F 82% 30.30 in 10.0 mi NE 4.6 mph - N/A   Overcast
5:55 PM 19.9 °F - 17.1 °F 89% 30.31 in 10.0 mi Calm Calm - N/A   Overcast
6:55 PM 19.0 °F - 16.0 °F 88% 30.31 in 10.0 mi Calm Calm - N/A   Overcast
7:55 PM 17.1 °F - 15.1 °F 92% 30.32 in 10.0 mi Calm Calm - N/A   Overcast
8:55 PM 16.0 °F - 15.1 °F 96% 30.33 in 10.0 mi Calm Calm - N/A   Overcast
9:55 PM 10.0 °F - 9.0 °F 95% 30.35 in 1.2 mi Calm Calm - N/A   Partly Cloudy
10:09 PM 8.6 °F - 6.8 °F 92% 30.21 in 10.0 mi Calm Calm - N/A   Clear
10:55 PM 15.1 °F 1.1 °F 10.0 °F 80% 30.37 in 10.0 mi NNE 12.7 mph - N/A   Scattered Clouds
11:55 PM 16.0 °F -0.9 °F 9.0 °F 74% 30.38 in 10.0 mi NNE 19.6 mph - N/A   Mostly Cloudy